TimeMDT,TemperatureF,Dew PointF,Humidity,Sea Level PressureIn,VisibilityMPH,Wind Direction,Wind SpeedMPH,Gust SpeedMPH,PrecipitationIn,Events,Conditions,WindDirDegrees,DateUTC
12:53 AM,66.0,55.9,70,30.01,10.0,NNW,8.1,-,N/A,,Overcast,340,2013-09-04 06:53:00
1:53 AM,64.9,55.9,73,30.02,10.0,WNW,5.8,-,N/A,,Clear,300,2013-09-04 07:53:00
2:53 AM,64.0,54.0,70,30.02,10.0,WSW,6.9,-,N/A,,Overcast,250,2013-09-04 08:53:00
3:53 AM,62.1,54.0,75,30.02,10.0,East,3.5,-,N/A,,Clear,100,2013-09-04 09:53:00
4:53 AM,63.0,53.1,70,30.02,10.0,Calm,Calm,-,N/A,,Clear,0,2013-09-04 10:53:00
5:53 AM,60.1,54.0,80,30.04,10.0,Calm,Calm,-,N/A,,Clear,0,2013-09-04 11:53:00
6:53 AM,59.0,52.0,78,30.06,10.0,NNW,5.8,-,N/A,,Clear,330,2013-09-04 12:53:00
7:53 AM,61.0,53.1,75,30.07,10.0,Calm,Calm,-,N/A,,Clear,0,2013-09-04 13:53:00
8:53 AM,66.0,53.1,63,30.06,10.0,Calm,Calm,-,N/A,,Clear,0,2013-09-04 14:53:00
9:53 AM,73.0,54.0,51,30.06,10.0,Calm,Calm,-,N/A,,Clear,0,2013-09-04 15:53:00
10:53 AM,75.0,54.0,48,30.06,10.0,WNW,5.8,-,N/A,,Clear,300,2013-09-04 16:53:00
11:53 AM,79.0,52.0,39,30.04,10.0,Variable,3.5,-,N/A,,Clear,0,2013-09-04 17:53:00
12:53 PM,82.0,52.0,35,30.02,10.0,NNW,4.6,-,N/A,,Clear,340,2013-09-04 18:53:00
1:53 PM,84.0,50.0,31,30.01,10.0,Variable,4.6,-,N/A,,Clear,0,2013-09-04 19:53:00
2:53 PM,89.1,50.0,26,29.99,10.0,NE,8.1,-,N/A,,Clear,40,2013-09-04 20:53:00
3:53 PM,89.1,48.9,25,29.97,10.0,NNE,6.9,-,N/A,,Scattered Clouds,30,2013-09-04 21:53:00
4:53 PM,90.0,44.1,20,29.96,10.0,NNE,3.5,-,N/A,,Partly Cloudy,30,2013-09-04 22:53:00
5:53 PM,89.1,44.1,21,29.96,10.0,Variable,3.5,-,N/A,,Clear,0,2013-09-04 23:53:00
6:53 PM,86.0,46.0,25,29.95,10.0,Calm,Calm,-,N/A,,Clear,0,2013-09-05 00:53:00
7:53 PM,82.0,44.1,26,29.96,10.0,Calm,Calm,-,N/A,,Clear,0,2013-09-05 01:53:00
8:53 PM,79.0,46.9,32,29.97,10.0,Calm,Calm,-,N/A,,Clear,0,2013-09-05 02:53:00
9:53 PM,75.0,44.1,33,30.00,10.0,Variable,6.9,-,N/A,,Clear,0,2013-09-05 03:53:00
10:53 PM,73.9,45.0,35,30.01,10.0,West,6.9,-,N/A,,Clear,280,2013-09-05 04:53:00
11:53 PM,72.0,44.1,37,30.00,10.0,West,6.9,-,N/A,,Clear,260,2013-09-05 05:53:00